Weather History for Grants-Milan, NM

Change the Weather History Date:

Monday, March 4, 2013

  Actual Average Record
Temperature  
Mean Temperature 42 °F -  
Max Temperature 58 °F 53 °F 71 °F (1972)
Min Temperature 27 °F 21 °F 0 °F (2002)
Degree Days  
Heating Degree Days 22    
Moisture  
Dew Point 19 °F    
Average Humidity 35    
Maximum Humidity 59    
Minimum Humidity 20    
Precipitation  
Precipitation 0.00 in - - ()
Sea Level Pressure  
Sea Level Pressure 30.00 in    
Wind  
Wind Speed 13 mph (WNW)    
Max Wind Speed 28 mph    
Max Gust Speed 37 mph    
Visibility 10 miles    
Events      
Averages and records for this station are not official NWS values.
T = Trace of Precipitation, MM = Missing Value Source: NWS Daily Summary

Daily Weather History Graph

Daily Weather History Graph

Search for Another Location

Airport:

Trip Planner

Search our weather history database for the weather conditions in past years. The results will help you decide how hot, cold, wet, or windy it might be!

Date:

Astronomy

Mar. 04, 2013 Rise Set
Actual Time 6:36 AM MST 6:10 PM MST
Civil Twilight 6:11 AM MST 6:35 PM MST
Nautical Twilight 5:42 AM MST 7:04 PM MST
Astronomical Twilight 5:12 AM MST 7:34 PM MST
Moon 12:40 AM MST (3/4) 11:04 AM MST (3/4)
Length of Visible Light 12h 24m
Length of Day
11h 33m
Waning Gibbous, 51% of the Moon is Illuminated
Mar 4
Waning Gibbous
Mar 4
Last Quarter
Mar 11
New
Mar 19
First Quarter
Mar 27
Full

Hourly Weather History & Observations

Time (MST) Temp. Windchill Dew Point Humidity Pressure Visibility Wind Dir Wind Speed Gust Speed Precip Events Conditions
12:15 AM 48.7 °F - 18.7 °F 30% 29.96 in 10.0 mi West 18.4 mph 29.9 mph N/A   Clear
12:55 AM 48.9 °F - 17.6 °F 29% 29.96 in 10.0 mi West 20.7 mph 27.6 mph N/A   Clear
1:15 AM 49.1 °F - 18.0 °F 29% 29.96 in 10.0 mi West 17.3 mph 27.6 mph N/A   Clear
1:35 AM 48.2 °F - 18.1 °F 30% 29.95 in 10.0 mi West 15.0 mph 25.3 mph N/A   Clear
1:55 AM 47.8 °F - 18.3 °F 31% 29.95 in 10.0 mi West 18.4 mph 23.0 mph N/A   Clear
2:15 AM 47.8 °F - 18.1 °F 31% 29.95 in 10.0 mi West 15.0 mph 32.2 mph N/A   Clear
2:35 AM 48.2 °F - 18.3 °F 31% 29.94 in 10.0 mi West 18.4 mph 27.6 mph N/A   Clear
2:55 AM 47.7 °F - 17.4 °F 30% 29.93 in 10.0 mi West 17.3 mph 24.2 mph N/A   Clear
3:15 AM 47.5 °F - 17.1 °F 30% 29.93 in 10.0 mi West 13.8 mph 25.3 mph N/A   Clear
3:35 AM 46.8 °F - 16.5 °F 30% 29.94 in 10.0 mi WNW 12.7 mph 18.4 mph N/A   Clear
3:55 AM 45.9 °F 40.0 °F 16.5 °F 31% 29.93 in 10.0 mi WNW 12.7 mph 19.6 mph N/A   Clear
4:15 AM 43.5 °F 40.1 °F 15.8 °F 33% 29.94 in 10.0 mi NNW 5.8 mph - N/A   Clear
4:35 AM 40.3 °F 36.3 °F 15.3 °F 36% 29.94 in 10.0 mi NE 5.8 mph - N/A   Scattered Clouds
4:55 AM 41.7 °F 38.0 °F 16.0 °F 35% 29.94 in 10.0 mi North 5.8 mph - N/A   Mostly Cloudy
5:15 AM 42.3 °F 39.4 °F 17.1 °F 36% 29.95 in 10.0 mi NNE 4.6 mph - N/A   Mostly Cloudy
5:35 AM 40.5 °F - 17.1 °F 39% 29.95 in 10.0 mi Calm Calm - N/A   Overcast
5:55 AM 38.7 °F 36.3 °F 17.1 °F 42% 29.96 in 10.0 mi NW 3.5 mph - N/A   Overcast
6:15 AM 35.4 °F 32.6 °F 17.1 °F 47% 29.96 in 10.0 mi NW 3.5 mph - N/A   Overcast
6:35 AM 37.0 °F - 16.7 °F 44% 29.96 in 10.0 mi Calm Calm - N/A   Overcast
6:55 AM 35.1 °F - 17.1 °F 48% 29.96 in 10.0 mi Calm Calm - N/A   Overcast
7:15 AM 37.6 °F - 17.6 °F 44% 29.96 in 10.0 mi Calm Calm - N/A   Overcast
7:35 AM 37.4 °F - 18.1 °F 46% 29.96 in 10.0 mi Calm Calm - N/A   Overcast
7:55 AM 39.6 °F - 18.7 °F 43% 29.96 in 10.0 mi Calm Calm - N/A   Overcast
8:15 AM 42.4 °F 40.7 °F 19.0 °F 39% 29.96 in 10.0 mi SSW 3.5 mph - N/A   Overcast
8:35 AM 46.4 °F 45.2 °F 18.7 °F 33% 29.97 in 10.0 mi SSW 3.5 mph - N/A   Overcast
8:55 AM 46.9 °F - 18.1 °F 32% 29.98 in 10.0 mi SSW 3.5 mph - N/A   Overcast
9:15 AM 49.1 °F - 21.6 °F 34% 29.97 in 10.0 mi NNW 8.1 mph 21.9 mph N/A   Overcast
9:35 AM 49.1 °F - 23.5 °F 37% 29.98 in 10.0 mi West 23.0 mph 32.2 mph N/A   Overcast
9:55 AM 49.5 °F - 22.8 °F 35% 29.97 in 10.0 mi West 16.1 mph 26.5 mph N/A   Mostly Cloudy
10:15 AM 51.3 °F - 22.1 °F 32% 29.97 in 10.0 mi WNW 19.6 mph 27.6 mph N/A   Scattered Clouds
10:35 AM 52.7 °F - 22.8 °F 31% 29.97 in 10.0 mi West 15.0 mph 28.8 mph N/A   Scattered Clouds
10:55 AM 54.5 °F - 24.1 °F 31% 29.96 in 10.0 mi West 15.0 mph 27.6 mph N/A   Scattered Clouds
11:15 AM 53.6 °F - 25.7 °F 34% 29.97 in 10.0 mi WNW 19.6 mph 31.1 mph N/A   Scattered Clouds
11:35 AM 55.0 °F - 24.4 °F 31% 29.96 in 10.0 mi WNW 23.0 mph 33.4 mph N/A   Clear
11:55 AM 56.3 °F - 22.1 °F 27% 29.95 in 10.0 mi West 23.0 mph 31.1 mph N/A   Scattered Clouds
12:15 PM 57.6 °F - 20.7 °F 24% 29.94 in 10.0 mi West 19.6 mph 34.5 mph N/A   Scattered Clouds
12:35 PM 57.2 °F - 20.8 °F 24% 29.94 in 10.0 mi West 23.0 mph 33.4 mph N/A   Scattered Clouds
12:55 PM 57.4 °F - 21.7 °F 25% 29.93 in 10.0 mi WNW 26.5 mph 31.1 mph N/A   Scattered Clouds
1:15 PM 56.8 °F - 21.0 °F 25% 29.93 in 10.0 mi West 26.5 mph 35.7 mph N/A   Overcast
1:35 PM 57.0 °F - 21.4 °F 25% 29.93 in 10.0 mi West 26.5 mph 31.1 mph N/A   Mostly Cloudy
2:15 PM 58.3 °F - 19.9 °F 23% 29.94 in 10.0 mi WNW 20.7 mph 27.6 mph N/A   Overcast
2:35 PM 57.9 °F - 16.5 °F 20% 29.95 in 10.0 mi WNW 27.6 mph 36.8 mph N/A   Mostly Cloudy
2:55 PM 54.7 °F - 22.1 °F 28% 29.97 in 10.0 mi NW 25.3 mph 31.1 mph N/A   Overcast
3:15 PM 56.7 °F - 22.1 °F 26% 29.98 in 10.0 mi West 20.7 mph 33.4 mph N/A   Mostly Cloudy
3:35 PM 55.4 °F - 22.5 °F 28% 29.98 in 10.0 mi NW 17.3 mph 28.8 mph N/A   Overcast
3:55 PM 55.4 °F - 22.8 °F 28% 29.98 in 10.0 mi WNW 15.0 mph 26.5 mph N/A   Mostly Cloudy
4:15 PM 56.8 °F - 21.7 °F 26% 29.98 in 10.0 mi West 16.1 mph 23.0 mph N/A   Mostly Cloudy
4:35 PM 56.1 °F - 18.9 °F 23% 29.98 in 10.0 mi West 18.4 mph 25.3 mph N/A   Mostly Cloudy
4:55 PM 54.9 °F - 19.6 °F 25% 29.99 in 10.0 mi WNW 13.8 mph 27.6 mph N/A   Mostly Cloudy
5:15 PM 53.6 °F - 19.9 °F 27% 30.00 in 10.0 mi NW 20.7 mph 27.6 mph N/A   Mostly Cloudy
5:35 PM 53.6 °F - 20.3 °F 27% 30.01 in 10.0 mi WNW 12.7 mph 23.0 mph N/A   Scattered Clouds
5:55 PM 52.7 °F - 20.3 °F 28% 30.03 in 10.0 mi NW 15.0 mph 23.0 mph N/A   Clear
6:15 PM 50.5 °F - 20.3 °F 30% 30.04 in 10.0 mi WNW 15.0 mph - N/A   Clear
6:55 PM 46.9 °F - 20.3 °F 35% 30.06 in 10.0 mi WNW 12.7 mph - N/A   Clear
7:35 PM 45.5 °F 39.2 °F 20.5 °F 37% 30.08 in 10.0 mi WNW 13.8 mph - N/A   Clear
7:55 PM 44.8 °F 39.4 °F 20.1 °F 37% 30.09 in 10.0 mi West 10.4 mph - N/A   Clear
8:15 PM 44.4 °F 38.6 °F 20.5 °F 39% 30.10 in 10.0 mi WNW 11.5 mph - N/A   Clear
8:35 PM 40.3 °F 34.9 °F 19.4 °F 43% 30.12 in 10.0 mi North 8.1 mph - N/A   Clear
8:55 PM 37.4 °F - 17.8 °F 45% 30.12 in 10.0 mi Calm Calm - N/A   Clear
9:15 PM 34.2 °F 31.2 °F 17.2 °F 50% 30.13 in 10.0 mi North 3.5 mph - N/A   Clear
9:35 PM 33.1 °F - 17.4 °F 53% 30.14 in 10.0 mi Calm Calm - N/A   Clear
9:55 PM 31.6 °F 27.0 °F 16.3 °F 53% 30.15 in 10.0 mi NNW 4.6 mph - N/A   Clear
10:15 PM 33.6 °F - 17.1 °F 51% 30.16 in 10.0 mi Calm Calm - N/A   Clear
10:35 PM 32.4 °F 29.1 °F 17.4 °F 54% 30.16 in 10.0 mi WNW 3.5 mph - N/A   Clear
10:55 PM 31.8 °F 27.3 °F 17.6 °F 56% 30.18 in 10.0 mi West 4.6 mph - N/A   Clear
11:15 PM 29.8 °F 23.9 °F 15.6 °F 56% 30.18 in 10.0 mi NW 5.8 mph - N/A   Clear
11:35 PM 27.9 °F 21.5 °F 15.1 °F 59% 30.18 in 10.0 mi NW 5.8 mph - N/A   Clear
11:55 PM 27.0 °F 23.0 °F 14.4 °F 59% 30.18 in 10.0 mi NW 3.5 mph - N/A   Clear